Location: Unspecified
(47.0835°N, 11.5736°E)
Time: 12:40:15
(UTC+01:00)

ISS - Visible Passes

Search period start: 20 January 2022 00:00
Search period end: 30 January 2022 00:00
Orbit: 413 x 422 km, 51.6° (Epoch: 20 January)

Date Brightness Start Highest point End Pass type
(mag) Time Alt. Az. Time Alt. Az. Time Alt. Az.
20 Jan -2.9 18:14:23 10° SSW 18:17:28 36° SE 18:18:51 24° E visible
20 Jan -0.8 19:50:54 10° W 19:51:48 17° W 19:51:48 17° W visible
21 Jan -3.5 19:02:49 10° WSW 19:05:54 66° WNW 19:05:54 66° WNW visible
22 Jan -3.8 18:14:48 10° WSW 18:18:08 82° SSE 18:19:56 25° ENE visible
22 Jan -0.8 19:51:58 10° WNW 19:52:52 16° WNW 19:52:52 16° WNW visible
23 Jan -3.0 19:03:48 10° W 19:06:52 43° NNW 19:06:52 43° NNW visible
24 Jan -3.4 18:15:38 10° W 18:18:55 54° NNW 18:20:50 22° NE visible
24 Jan -0.8 19:52:58 10° WNW 19:53:46 15° WNW 19:53:46 15° WNW visible
25 Jan -2.7 19:04:49 10° WNW 19:07:43 35° NNW 19:07:43 35° NNW visible
26 Jan -2.9 18:16:38 10° W 18:19:48 38° N 18:21:39 20° NE visible
26 Jan -0.8 19:53:47 10° WNW 19:54:34 16° WNW 19:54:34 16° WNW visible
27 Jan -2.8 19:05:42 10° WNW 19:08:30 36° N 19:08:30 36° N visible
28 Jan -2.8 18:17:34 10° WNW 18:20:42 36° N 18:22:27 20° ENE visible
28 Jan -1.0 19:54:28 10° WNW 19:55:23 17° WNW 19:55:23 17° WNW visible
29 Jan -3.3 19:06:24 10° WNW 19:09:22 50° N 19:09:22 50° N visible
